Temperature
14 14 14 14 14 14 14 13 13 13 13 13 13 13 13 14 14 14 14 14 15 15 15 15 15 15 15 15 15 15 15 15 15 15 15 15 15 15
13 14 14 14 14 13 13 13 13 13 13 13 13 13 13 13 13 14 14 14 14 14 14 15 15 15 15 15 15 14 14 15 15 15 15 15 15 15
13 13 13 13 13 13 13 13 13 13 13 12 12 12 13 13 13 13 14 14 14 14 14 14 14 14 14 14 14 14 14 14 14 14 14 14 14 14
13 13 13 13 13 13 13 13 13 13 13 12 12 12 12 13 13 13 13 13 13 13 13 13 13 13 13 13 13 13 13 13 13 13 13 14 14 14
13 13 13 13 13 13 13 13 13 13 13 13 12 12 12 12 12 12 12 12 13 12 13 13 13 13 12 12 13 13 12 13 13 13 13 13 13 13
12 12 12 12 13 13 13 13 12 12 12 12 12 12 12 12 12 12 12 12 12 12 12 12 12 12 12 12 12 12 12 12 12 12 12 12 13 13
12 12 12 12 12 12 12 12 12 12 12 12 12 12 12 12 12 11 11 11 11 11 11 11 11 11 11 11 11 12 12 12 12 12 12 12 12 12
11 11 11 12 12 12 12 12 12 12 12 12 12 12 11 11 11 11 11 11 11 11 11 11 11 11 11 11 11 11 11 11 11 11 11 11 11 12
11 11 11 11 11 11 12 12 12 12 12 12 11 11 11 11 11 11 11 10 10 10 10 10 10 10 10 10 10 10 11 11 11 11 11 11 11 11
10 11 11 11 11 11 11 11 11 11 11 11 11 11 10 10 10 10 10 10 10 10 10 10 10 9 9 9 9 10 10 10 10 10 11 11 11 11
10 11 11 11 11 11 11 11 11 10 10 10 10 10 10 10 10 10 9 9 9 9 9 9 9 9 9 9 9 9 9 9 10 10 10 10 10 11
10 10 10 10 10 11 11 11 11 10 10 10 10 10 9 9 9 9 9 9 9 8 8 9 8 9 8 8 8 8 9 9 9 9 10 10 10 10
10 10 10 10 10 10 10 11 10 10 10 10 9 9 9 9 9 8 8 8 8 8 8 8 8 8 8 8 8 8 8 8 9 9 9 9 9 9
10 10 10 10 10 10 10 10 10 10 9 9 9 9 8 8 8 8 8 8 8 8 8 8 7 7 7 7 7 7 8 7 8 8 8 8 9 8
10 10 10 9 10 10 9 9 9 9 9 9 8 8 8 8 8 8 7 7 7 7 7 7 7 7 7 7 7 7 7 7 7 7 7 7 7 8
10 9 9 9 9 9 9 9 8 8 8 8 8 8 8 7 7 7 7 7 7 7 7 7 7 7 7 6 6 6 6 6 6 6 6 7 6 6
10 9 9 9 9 9 8 8 8 8 8 8 8 7 7 7 7 7 7 7 7 6 6 6 6 6 6 6 6 6 6 6 6 6 6 6 6 6
10 9 9 9 9 9 8 8 8 8 8 7 7 7 7 7 7 7 7 7 6 6 6 6 6 6 6 6 6 6 6 5 5 5 5 5 5 5
9 9 9 9 9 9 9 8 8 8 8 7 7 7 7 7 7 7 7 6 6 6 6 6 6 6 6 5 5 5 5 5 5 5 5 5 5 5
9 9 9 9 9 9 9 9 8 8 8 8 7 7 7 7 7 7 6 6 6 6 6 6 5 5 5 5 5 5 5 5 5 5 5 5 5 5
9 9 9 9 9 9 9 9 9 8 8 8 8 8 7 7 7 7 6 6 6 6 5 5 5 5 5 5 5 5 5 5 5 4 4 4 4 4
10 10 9 9 9 9 9 9 9 9 9 8 8 8 8 7 7 7 7 6 6 6 5 5 5 5 5 5 4 4 4 4 4 4 4 4 4 3
10 10 10 9 10 10 10 10 9 9 9 9 8 8 8 8 8 7 7 7 6 6 5 5 5 5 4 4 4 4 4 4 4 4 4 4 3 3
Wind_Speed
6 6 5 4 4 4 3 3 3 3 2 2 3 4 4 5 7 8 8 11 12 11 11 12 12 12 12 11 11 10 8 6 5 3 2 3 4 6
5 6 5 3 3 3 3 3 3 3 3 3 4 4 5 6 10 10 11 14 14 13 12 12 12 12 11 11 11 10 8 7 5 4 4 4 5 6
5 6 5 4 3 3 3 3 3 4 6 4 4 4 6 7 8 9 11 10 11 14 14 13 12 11 11 10 10 9 7 6 5 5 5 5 6 8
6 6 5 4 4 4 4 5 5 5 7 8 4 5 7 6 7 8 7 9 10 14 15 14 13 12 11 10 10 9 8 7 6 6 6 7 8 10
5 6 5 6 6 5 7 7 7 8 7 8 5 4 6 5 7 7 8 7 8 10 12 13 13 13 12 12 11 10 9 8 7 7 7 8 10 12
7 6 6 6 7 8 8 10 10 10 9 9 7 5 5 4 5 6 6 7 7 7 8 9 11 12 12 12 11 11 10 9 8 8 9 10 11 13
9 8 8 10 10 9 10 10 11 10 9 9 8 6 5 4 4 3 4 4 6 7 5 6 6 6 8 9 10 11 11 10 10 10 11 11 13 14
10 9 10 13 16 16 15 12 11 11 10 8 7 7 4 4 3 4 3 4 4 6 5 5 5 6 6 8 11 12 12 12 12 12 12 13 14 15
8 8 10 11 13 13 16 16 14 12 10 8 10 6 4 2 4 5 5 5 4 4 3 5 5 5 5 8 13 14 13 13 13 13 13 14 15 17
7 8 10 9 9 12 13 12 10 9 7 7 7 5 4 3 3 3 3 4 3 4 4 4 5 4 4 5 12 16 16 16 16 15 15 15 17 18
7 7 9 9 11 15 14 12 11 9 11 12 11 10 10 8 4 4 4 5 5 4 5 3 4 3 3 4 8 15 16 17 18 17 17 17 18 17
6 7 8 10 11 12 12 12 11 7 8 9 10 10 10 11 10 6 4 4 3 3 5 4 4 4 3 3 4 9 12 14 17 17 18 19 19 12
7 5 5 11 13 12 11 9 11 9 9 10 9 8 8 8 8 7 5 5 5 4 4 2 3 3 3 3 4 5 7 9 11 12 16 19 19 13
7 6 7 12 14 14 11 12 13 11 9 9 8 7 6 6 6 6 7 7 6 5 4 3 3 3 3 4 4 6 6 8 10 10 11 15 16 17
7 10 12 14 14 11 13 13 10 8 8 8 7 5 3 3 3 4 5 6 7 9 9 6 4 4 4 4 4 5 5 6 10 9 10 11 12 12
9 11 13 13 11 11 9 7 6 7 7 7 5 4 3 4 5 4 4 4 6 6 8 10 8 5 5 4 5 6 6 7 9 9 8 9 10 12
11 7 6 6 6 6 5 6 5 5 6 4 5 5 5 5 4 3 3 4 5 4 5 6 6 5 5 5 6 7 7 7 8 8 7 9 10 10
12 9 7 7 8 7 7 5 4 5 5 5 5 5 5 6 5 4 4 5 5 4 4 4 5 4 3 4 5 6 7 6 6 8 8 8 10 10
10 10 9 8 8 7 7 6 5 4 4 5 5 5 5 5 4 4 4 4 4 3 3 3 4 4 5 6 5 6 6 5 6 7 7 7 7 8
9 11 10 9 8 8 7 6 6 5 5 5 5 5 5 4 4 4 4 4 3 3 3 3 3 3 3 3 3 4 7 5 5 6 6 5 5 5
10 10 10 9 9 8 8 7 7 7 6 5 5 5 5 4 4 4 4 4 3 2 2 3 3 4 2 1 2 4 5 6 5 4 5 6 7 8
11 11 10 10 9 9 8 8 8 7 7 6 6 5 5 5 5 6 5 4 3 2 1 1 3 2 2 3 4 4 5 6 6 6 7 7 5 6
12 11 10 10 9 8 9 10 10 9 8 7 7 6 6 5 5 5 5 4 4 3 2 1 1 2 2 2 3 3 5 6 5 5 5 9 8 6
Wind_Direction
215 207 203 200 199 200 193 183 175 167 118 44 41 23 33 54 56 69 69 71 78 80 81 80 81 81 83 84 84 81 78 74 68 50 3 318 293 279
206 200 196 190 189 191 186 184 171 142 118 61 51 34 46 68 62 70 71 70 70 77 80 81 82 83 84 85 83 80 75 68 59 42 17 351 326 307
194 187 182 168 165 159 148 136 125 120 117 84 48 41 57 66 62 66 66 67 67 68 73 75 77 78 78 77 75 71 66 58 47 27 2 339 321 308
173 163 157 143 129 127 124 113 108 108 122 117 72 50 56 56 62 62 59 64 64 61 64 66 68 71 71 69 66 60 50 37 26 8 348 330 317 306
140 138 131 127 117 112 111 110 106 102 100 111 94 63 62 51 61 63 59 52 54 54 57 58 60 65 65 62 58 50 40 27 13 356 339 326 316 308
92 99 107 113 119 118 114 113 112 107 102 102 95 75 62 46 63 68 65 51 45 37 42 46 51 57 57 55 49 40 30 19 6 352 338 325 316 308
79 78 89 103 107 112 120 120 118 113 109 104 98 86 68 60 61 56 77 66 53 30 30 33 35 43 41 38 34 24 17 9 359 348 337 327 320 313
88 82 87 92 94 91 94 97 110 119 118 109 102 98 89 79 72 69 70 63 46 11 19 26 30 40 34 35 23 17 11 4 355 346 336 328 322 316
88 95 98 97 96 98 87 80 78 86 104 116 112 112 110 111 104 88 78 76 64 359 7 27 20 34 27 29 25 22 16 7 358 348 340 332 325 320
80 97 104 100 104 106 99 88 79 71 83 96 109 110 108 109 103 104 103 92 72 37 21 30 8 9 359 17 17 15 12 6 359 352 346 338 331 324
74 87 107 109 118 116 109 104 94 83 78 84 86 86 83 78 94 102 91 86 64 30 18 24 5 352 349 3 8 10 8 4 360 356 352 347 341 331
84 77 93 112 120 121 122 121 115 110 108 94 77 65 66 61 59 72 97 97 83 43 11 14 11 8 12 355 352 4 7 1 357 357 356 353 351 345
116 103 97 109 109 110 114 120 129 126 112 102 91 79 70 64 60 60 64 83 87 62 5 7 25 29 24 344 340 350 2 4 2 1 0 358 358 360
131 123 114 111 107 105 106 116 117 112 107 101 94 84 78 71 61 61 65 67 68 64 20 33 54 42 40 30 2 342 347 3 5 4 5 4 8 5
131 130 121 111 102 99 106 110 110 110 109 106 102 91 78 65 72 74 63 67 69 58 47 43 59 67 63 45 16 357 345 352 2 3 10 16 17 13
120 116 106 99 96 97 94 90 94 107 114 113 107 97 91 85 71 71 69 61 64 47 39 41 43 57 59 45 34 20 9 360 359 0 9 23 24 23
134 122 117 118 114 107 100 97 102 110 107 111 116 112 103 93 79 73 77 75 72 52 26 15 25 53 59 43 34 23 14 13 8 4 12 25 27 23
139 144 146 147 148 145 139 128 123 124 124 127 124 119 115 109 100 89 87 86 81 62 38 11 6 35 55 67 40 13 12 10 7 13 20 25 26 18
147 158 162 164 163 160 158 153 150 146 141 139 134 132 127 120 115 110 105 99 89 71 45 27 26 38 37 30 24 27 5 358 6 21 24 24 19 8
166 170 173 174 172 171 171 166 156 152 152 149 146 146 143 136 130 129 127 119 105 83 59 45 35 27 23 5 345 351 5 2 2 8 10 15 18 356
177 177 178 179 180 181 180 175 170 169 167 163 162 160 158 149 145 147 143 134 125 106 72 35 350 324 274 315 9 13 10 10 9 356 355 3 8 14
180 181 183 184 184 184 183 180 177 177 176 177 176 174 172 169 165 166 167 162 157 145 117 41 7 31 58 42 24 4 359 2 11 25 35 25 9 11
182 183 183 185 186 184 183 184 185 186 187 187 186 184 181 181 181 179 179 179 173 171 166 128 63 57 52 29 8 2 2 2 0 5 18 15 22 29
Height
1436 1437 1439 1440 1442 1443 1444 1446 1448 1448 1450 1451 1452 1453 1454 1455 1457 1458 1459 1460 1461 1463 1464 1465 1466 1467 1469 1471 1473 1476 1478 1481 1484 1486 1488 1490 1493 1495
1432 1434 1435 1437 1439 1440 1441 1443 1444 1446 1448 1450 1451 1453 1455 1456 1457 1458 1459 1460 1461 1462 1463 1464 1465 1466 1468 1469 1471 1473 1475 1477 1479 1480 1482 1484 1486 1488
1429 1431 1433 1434 1436 1438 1439 1441 1443 1445 1447 1450 1452 1454 1456 1457 1458 1459 1460 1461 1461 1462 1463 1463 1464 1465 1467 1468 1469 1470 1472 1473 1474 1476 1477 1478 1480 1481
1426 1428 1430 1432 1434 1436 1438 1440 1442 1445 1447 1450 1453 1456 1458 1459 1460 1460 1461 1461 1462 1462 1463 1463 1464 1465 1465 1466 1467 1468 1469 1470 1470 1471 1472 1473 1474 1474
1423 1426 1428 1431 1433 1436 1438 1440 1443 1446 1449 1451 1454 1457 1459 1461 1461 1462 1463 1463 1463 1464 1464 1464 1464 1464 1465 1465 1466 1466 1466 1466 1467 1467 1467 1467 1467 1467
1423 1425 1428 1430 1433 1436 1438 1441 1444 1447 1451 1453 1456 1458 1460 1462 1463 1463 1464 1465 1465 1465 1465 1465 1465 1465 1465 1465 1464 1464 1464 1463 1463 1463 1462 1462 1461 1460
1424 1426 1429 1431 1434 1437 1440 1443 1446 1449 1452 1455 1457 1459 1462 1463 1464 1465 1465 1466 1466 1466 1466 1466 1466 1465 1465 1464 1464 1463 1462 1461 1460 1459 1458 1457 1455 1454
1426 1429 1431 1434 1437 1440 1443 1447 1450 1452 1454 1456 1459 1461 1463 1464 1465 1466 1466 1467 1467 1468 1467 1467 1466 1465 1465 1464 1463 1462 1461 1459 1458 1456 1454 1452 1450 1448
1430 1432 1435 1438 1441 1443 1447 1450 1453 1456 1458 1459 1460 1462 1464 1465 1466 1466 1467 1467 1467 1468 1468 1467 1467 1466 1465 1464 1463 1461 1459 1458 1456 1453 1451 1448 1446 1443
1435 1437 1439 1442 1445 1447 1450 1452 1455 1458 1460 1462 1463 1464 1465 1466 1467 1468 1468 1468 1468 1468 1468 1468 1467 1467 1466 1464 1463 1461 1459 1456 1454 1451 1448 1445 1441 1438
1439 1441 1443 1446 1449 1451 1453 1455 1457 1459 1462 1464 1465 1466 1467 1467 1468 1468 1469 1469 1469 1469 1469 1468 1468 1467 1466 1465 1463 1461 1458 1456 1453 1449 1445 1442 1438 1434
1442 1444 1446 1448 1451 1453 1455 1456 1458 1461 1463 1465 1466 1467 1468 1468 1469 1469 1470 1470 1470 1470 1470 1469 1468 1467 1466 1466 1463 1461 1458 1455 1452 1448 1444 1439 1435 1430
1443 1445 1447 1450 1452 1454 1456 1458 1460 1462 1464 1465 1467 1468 1469 1469 1470 1470 1471 1471 1471 1471 1471 1469 1469 1468 1467 1466 1464 1461 1458 1454 1451 1447 1443 1439 1433 1428
1444 1446 1448 1451 1453 1455 1457 1459 1461 1463 1465 1466 1468 1469 1470 1471 1471 1472 1472 1472 1472 1472 1471 1471 1469 1469 1468 1466 1464 1462 1459 1455 1451 1447 1442 1438 1434 1429
1444 1447 1449 1452 1454 1456 1458 1460 1462 1464 1466 1467 1469 1470 1471 1472 1473 1474 1474 1474 1474 1473 1473 1472 1471 1470 1469 1467 1465 1462 1459 1456 1452 1447 1443 1438 1433 1429
1444 1447 1450 1453 1455 1457 1459 1461 1463 1465 1467 1468 1470 1471 1473 1474 1475 1475 1476 1476 1475 1475 1474 1473 1472 1471 1470 1468 1467 1464 1461 1457 1453 1449 1445 1441 1436 1432
1443 1447 1450 1453 1456 1458 1460 1462 1464 1466 1468 1469 1471 1472 1474 1475 1476 1476 1477 1477 1476 1476 1476 1475 1474 1473 1471 1470 1468 1466 1463 1459 1455 1452 1448 1443 1439 1435
1442 1446 1449 1453 1456 1459 1461 1463 1465 1467 1469 1470 1472 1473 1475 1476 1476 1477 1477 1477 1477 1477 1477 1476 1475 1474 1473 1471 1470 1467 1465 1461 1458 1454 1450 1446 1442 1439
1440 1444 1448 1452 1456 1459 1461 1463 1465 1467 1469 1471 1472 1474 1475 1476 1477 1477 1478 1478 1478 1478 1477 1477 1476 1475 1474 1472 1471 1469 1466 1463 1460 1457 1453 1449 1445 1442
1438 1442 1447 1451 1455 1458 1461 1463 1465 1467 1469 1471 1473 1474 1475 1476 1477 1478 1478 1478 1478 1478 1478 1477 1476 1475 1474 1474 1472 1470 1467 1464 1461 1458 1455 1452 1449 1446
1435 1440 1445 1449 1453 1457 1460 1462 1465 1467 1469 1471 1472 1474 1475 1476 1477 1477 1478 1478 1478 1478 1478 1477 1476 1475 1474 1473 1472 1470 1468 1465 1462 1460 1457 1454 1450 1447
1432 1437 1442 1447 1451 1455 1458 1461 1463 1466 1468 1470 1472 1473 1475 1476 1476 1477 1477 1478 1478 1478 1477 1477 1476 1475 1474 1473 1471 1470 1468 1466 1463 1461 1458 1455 1453 1449
1429 1434 1439 1444 1449 1452 1456 1459 1462 1464 1467 1469 1471 1472 1474 1475 1476 1476 1477 1477 1477 1477 1477 1476 1475 1475 1473 1472 1471 1469 1467 1465 1463 1461 1459 1456 1454 1452